Baton Rouge, LA

7:46 PM CST on February 24, 2017 (GMT -0600)
Baton Rouge Metro-Ryan

Weather History for KBTR - April, 2013

Change the Weather History Date:

Monday, April 15, 2013

  Actual Average Record
Temperature  
Mean Temperature 72 °F 68 °F  
Max Temperature 80 °F 79 °F 89 °F (1972)
Min Temperature 64 °F 57 °F 36 °F (2008)
Degree Days  
Heating Degree Days 0 2  
Month to date heating degree days 41 38  
Since 1 July heating degree days 1489 1540  
Cooling Degree Days 7 5  
Month to date cooling degree days 43 55  
Year to date cooling degree days 87 144  
Growing Degree Days 20 (Base 50)    
Moisture  
Dew Point 68 °F    
Average Humidity 87    
Maximum Humidity 100    
Minimum Humidity 74    
Precipitation  
Precipitation 0.03 in 0.15 in 4.80 in (1896)
Month to date precipitation 4.00 2.31  
Year to date precipitation 28.95 17.48  
Snow  
Snow 0.00 in - - ()
Month to date snowfall 0.0  
Since 1 July snowfall 0.0  
Snow Depth 0.00 in    
Sea Level Pressure  
Sea Level Pressure 29.89 in    
Wind  
Wind Speed 7 mph (SE)    
Max Wind Speed 14 mph    
Max Gust Speed 25 mph    
Visibility 7 miles    
Events Rain    
T = Trace of Precipitation, MM = Missing Value Source: NWS Daily Summary

Daily Weather History Graph

Daily Weather History Graph

Search for Another Location

Airport or City:

Trip Planner

Search our weather history database for the weather conditions in past years. The results will help you decide how hot, cold, wet, or windy it might be!

Date:

Astronomy

Apr. 15, 2013 Rise Set
Actual Time 6:36 AM CDT 7:32 PM CDT
Civil Twilight 6:12 AM CDT 7:57 PM CDT
Nautical Twilight 5:43 AM CDT 8:26 PM CDT
Astronomical Twilight 5:13 AM CDT 8:56 PM CDT
Moon 10:15 AM CDT (4/15) No Moon Set
Length of Visible Light 13h 45m
Length of Day
12h 55m
Waxing Crescent, 25% of the Moon is Illuminated
Apr 15
Waxing Crescent
Apr 18
First Quarter
Apr 25
Full
May 2
Last Quarter
May 9
New

Hourly Weather History & Observations

Time (CDT) Temp. Dew Point Humidity Pressure Visibility Wind Dir Wind Speed Gust Speed Precip Events Conditions
12:05 AM 62.6 °F 60.8 °F 94% 29.83 in 10.0 mi Calm Calm - N/A   Mostly Cloudy
12:33 AM 62.6 °F 62.6 °F 100% 29.82 in 10.0 mi Calm Calm - N/A   Overcast
12:53 AM 64.0 °F 62.1 °F 93% 29.81 in 10.0 mi Calm Calm - N/A   Overcast
1:17 AM 64.4 °F 62.6 °F 94% 29.82 in 9.0 mi Calm Calm - N/A   Overcast
1:53 AM 64.0 °F 63.0 °F 96% 29.81 in 3.0 mi ESE 3.5 mph - N/A   Overcast
1:58 AM 64.4 °F 62.6 °F 94% 29.81 in 1.8 mi SE 3.5 mph - N/A   Overcast
2:31 AM 64.4 °F 64.4 °F 100% 29.82 in 3.0 mi SSE 4.6 mph - N/A   Overcast
2:53 AM 64.0 °F 63.0 °F 96% 29.82 in 4.0 mi Calm Calm - N/A   Overcast
3:53 AM 64.9 °F 64.0 °F 97% 29.83 in 6.0 mi South 8.1 mph - N/A   Overcast
4:25 AM 64.4 °F 64.4 °F 100% 29.84 in 10.0 mi SSE 5.8 mph - N/A   Overcast
4:53 AM 64.9 °F 63.0 °F 93% 29.83 in 10.0 mi SSE 4.6 mph - N/A   Mostly Cloudy
5:53 AM 64.9 °F 63.0 °F 93% 29.85 in 10.0 mi Calm Calm - N/A   Mostly Cloudy
6:53 AM 64.9 °F 64.0 °F 97% 29.87 in 8.0 mi Calm Calm - N/A   Overcast
7:53 AM 66.0 °F 64.0 °F 93% 29.89 in 6.0 mi ESE 3.5 mph - N/A   Overcast
8:53 AM 66.9 °F 64.0 °F 90% 29.91 in 7.0 mi East 6.9 mph - N/A   Mostly Cloudy
9:53 AM 69.1 °F 64.9 °F 87% 29.92 in 7.0 mi East 5.8 mph - N/A   Mostly Cloudy
10:53 AM 69.1 °F 64.9 °F 87% 29.94 in 8.0 mi ESE 10.4 mph - N/A   Overcast
11:53 AM 72.0 °F 66.9 °F 84% 29.94 in 10.0 mi ESE 9.2 mph - N/A   Mostly Cloudy
12:53 PM 75.0 °F 66.9 °F 76% 29.93 in 10.0 mi SE 6.9 mph - N/A   Mostly Cloudy
1:53 PM 78.1 °F 70.0 °F 76% 29.91 in 10.0 mi SE 11.5 mph - N/A   Overcast
2:53 PM 79.0 °F 70.0 °F 74% 29.89 in 10.0 mi SE 4.6 mph - N/A   Overcast
3:53 PM 78.1 °F 71.1 °F 79% 29.88 in 7.0 mi ESE 10.4 mph - N/A   Overcast
4:53 PM 77.0 °F 71.1 °F 82% 29.88 in 7.0 mi ESE 10.4 mph - N/A   Overcast
5:25 PM 75.2 °F 71.6 °F 89% 29.88 in 10.0 mi East 9.2 mph - N/A   Overcast
5:53 PM 75.9 °F 71.1 °F 85% 29.88 in 7.0 mi ESE 8.1 mph - N/A   Overcast
6:21 PM 75.2 °F 71.6 °F 89% 29.88 in 10.0 mi ESE 9.2 mph - N/A   Mostly Cloudy
6:53 PM 75.9 °F 72.0 °F 87% 29.87 in 7.0 mi North - - N/A   Overcast
7:33 PM 75.2 °F 71.6 °F 89% 29.88 in 10.0 mi ESE 5.8 mph - N/A   Overcast
7:53 PM 75.0 °F 72.0 °F 90% 29.88 in 5.0 mi ESE 9.2 mph - N/A   Overcast
8:48 PM 75.2 °F 71.6 °F 89% 29.91 in 9.0 mi ESE 5.8 mph - N/A   Overcast
8:53 PM 75.0 °F 72.0 °F 90% 29.92 in 9.0 mi ESE 5.8 mph - N/A   Overcast
9:14 PM 75.2 °F 71.6 °F 89% 29.93 in 8.0 mi ESE 4.6 mph - N/A   Overcast
9:23 PM 73.4 °F 71.6 °F 94% 29.93 in 9.0 mi ESE 5.8 mph - N/A   Overcast
9:31 PM 75.2 °F 71.6 °F 89% 29.94 in 9.0 mi ESE 4.6 mph - N/A   Overcast
9:53 PM 73.9 °F 73.0 °F 97% 29.94 in 5.0 mi ESE 5.8 mph - N/A   Overcast
10:11 PM 73.4 °F 73.4 °F 100% 29.95 in 3.0 mi ESE 6.9 mph - 0.01 in Rain Light Rain
10:21 PM 73.4 °F 73.4 °F 100% 29.95 in 2.5 mi SE 8.1 mph - 0.01 in Rain Rain
10:34 PM 73.4 °F 73.4 °F 100% 29.95 in 4.0 mi SE 8.1 mph - 0.02 in Rain Light Rain
10:53 PM 73.9 °F 73.0 °F 97% 29.96 in 4.0 mi SE 8.1 mph - 0.02 in Rain Light Rain
11:53 PM 73.0 °F 72.0 °F 96% 29.95 in 8.0 mi SE 11.5 mph - 0.01 in   Overcast